Regional Weather Roundup
Issued by NWS Cleveland, OH

Home | Current Version | Previous Version | Graphics & Text | Print | Product List | Glossary On
Versions: 1 2 3 4 5 6 7 8 9 10 11 12 13 14 15 16 17 18 19 20 21 22 23 24 25 26 27 28 29 30 31 32 33 34 35 36 37 38 39 40 41 42 43 44 45 46 47 48 49 50
000
ASUS41 KCLE 301802
RWRCLE
OHIO REGIONAL WEATHER ROUNDUP
NATIONAL WEATHER SERVICE CLEVELAND, OH
100 PM EST FRI JAN 30 2015

NOTE: "FAIR" INDICATES FEW OR NO CLOUDS BELOW 12,000 FEET WITH NO
SIGNIFICANT WEATHER AND/OR OBSTRUCTIONS TO VISIBILITY.

OHZ001>008-015>018-024>027-034-035-043-044-301900-
   NORTHWEST OHIO

CITY           SKY/WX    TMP DP  RH WIND       PRES   REMARKS
DEFIANCE       PTSUNNY   24  10  55 NW12      30.45F WCI  13
FINDLAY        FAIR      23   8  52 NW14      30.42F WCI  11
TOLEDO EXPRESS CLOUDY    21   9  59 N14       30.44F WCI   8
TOLEDO EXEC    MOSUNNY   22   7  52 NW15      30.45F WCI   9
LIMA           SUNNY     23  11  60 N14       30.42F WCI  11
$$

OHZ009>014-019>023-028>033-038-089-301900-
   NORTHEAST OHIO

CITY           SKY/WX    TMP DP  RH WIND       PRES   REMARKS
CLE-HOPKINS    CLOUDY    17   8  67 NW16G23   30.41S WCI   2
CLE-LAKEFRONT  CLOUDY    17   9  70 NW23      30.39S WCI  -1
CUY CO. ARPT   CLOUDY    18  10  73 NW12G23   30.37R WCI   5
LORAIN-ELYRIA  PTSUNNY   16   6  65 N17       30.41R WCI   0
ASHTABULA      LGT SNOW  17  10  74 N13G23    30.30S WCI   4
AKRON-CANTON   LGT SNOW  17   8  67 NW14G25   30.32R WCI   3
WOOSTER        CLOUDY    16   7  67 NW15      30.35F WCI   1
MANSFIELD      FLURRIES  16   8  71 NW18      30.36S WCI   0
YOUNGSTOWN     LGT SNOW  16   9  74 NW14      30.27S VSB 1   WCI   2
$$

OHZ042-051>053-060>062-070>072-077>081-301900-
  SOUTHWEST OHIO

CITY           SKY/WX    TMP DP  RH WIND       PRES   REMARKS
CINC-COVINGTON PTSUNNY   30  14  51 N10G20    30.44  WCI  21
CINC-LUNKEN    PTSUNNY   28  13  53 N16       30.48F WCI  16
HAMILTON       FLURRIES  28  14  55 N13       30.48F WCI  17
DAYTON         CLOUDY    24  14  65 NW13      30.44F WCI  12
WRIGHT-PAT AFB NOT AVBL
DAYTON GENERAL CLOUDY    25  12  58 NW13      30.43F WCI  14
WILMINGTON     CLOUDY    24  11  57 N14       30.41F WCI  12
$$

OHZ036-037-039>041-045>050-054>059-063>069-073>076-082>088-301900-
  CENTRAL AND SOUTHEAST OHIO

CITY           SKY/WX    TMP DP  RH WIND       PRES   REMARKS
COLUMBUS       MOSUNNY   23   9  55 NW16G25   30.40S WCI  10
OSU AIRPORT    MOSUNNY   21   8  57 N15G23    30.40S WCI   8
BOLTON FIELD   CLOUDY    25  12  58 NW15G21   30.41F WCI  12
RICKENBACK AFB NOT AVBL
NEWARK         PTSUNNY   23  10  57 NW9G21    30.38S WCI  13
MARION         SUNNY     20   9  62 N18       30.40F WCI   5
LANCASTER      PTSUNNY   24  11  57 N14       30.40S WCI  12
ZANESVILLE     CLOUDY    21  11  65 NW13G20   30.36S WCI   9
NEW PHILLY     CLOUDY    20   8  60 NW16G24   30.36R WCI   6
$$



USA.gov is the U.S. government's official web portal to all federal, state and local government web resources and services.